Tracking 35280 objects as of 7-Sep-2026
HD Live streaming from Space Station
objects crossing your sky now

SL-5 R/B


SL-5 R/B is no longer on orbit


NORAD ID: 783
Int'l Code: 1964-019B
Launch date: April 12, 1964
Source: Commonwealth of Independent States (former USSR) (CIS)
Launch site: TYURATAM MISSILE AND SPACE COMPLEX (TTMTR)
Decay date: 1964-05-08

Note: This is a ROCKET BODY
Your satellite tracking list
Your tracking list is empty




NASA's NSSDC Master Catalog

Two Line Element Set (TLE):
1 00783U 64019  B 64115.43719219  .01696230 +00000-0 +00000-0 0  9998
2 00783 059.9421 319.4366 0109106 073.8810 287.3171 15.91279727001905
Source of the keplerian elements: AFSPC